SCP
0 0 0 0 0 0 0 0 0 0 0 0 0 0 0 0 0 0 0 0 0 0 0 0 0 0 0 0 0 0 0 0 0 0 0 0 0 0 0 0 0 0 0 0 0 0 0 0 0 0 0 0 -0 0
0 0 0 0 0 0 0 0 0 0 0 0 0 0 0 0 0 0 0 0 0 0 0 0 0 0 0 0 0 0 0 0 0 0 0 0 0 0 0 0 0 0 0 0 0 0 0 0 0 0 0 -0 -0 0
0 0 0 0 0 0 0 0 0 0 0 0 0 0 0 0 0 0 0 0 0 0 0 0 0 0 0 0 0 0 0 0 0 0 0 0 0 0 0 0 0 0 0 0 0 0 0 -0 -0 0 -0 -0 -0 -0
0 0 0 0 0 0 0 0 0 0 0 0 0 0 0 0 0 0 0 0 0 0 0 0 0 0 0 0 0 0 0 0 0 0 0 0 0 0 0 0 0 0 -0 -0 0 0 -0 -0 -0 -0 0 0 0 -0
0 0 0 0 0 0 0 0 0 0 0 0 0 0 0 0 0 0 0 0 0 0 0 0 0 0 0 0 0 0 0 0 0 0 0 0 0 0 0 0 0 -0 -0 0 0 0 0 -0 -0 0 0 -0 -0 0
0 0 0 0 0 0 0 0 0 0 0 0 0 0 0 0 0 0 0 0 0 0 0 0 0 0 0 0 0 0 0 0 0 0 0 0 0 0 0 0 0 0 0 -0 0 0 0 -0 0 0 0 -0 0 -0
0 0 0 0 0 0 0 0 0 0 0 0 0 0 0 0 0 0 0 0 0 0 0 0 0 0 0 0 0 0 0 0 0 0 0 0 0 0 0 0 0 0 0 0 0 -0 0 -0 -0 0 0 0 0 0
0 0 0 0 0 0 0 0 0 0 0 0 0 0 0 0 0 0 0 0 0 0 0 0 0 0 0 0 0 0 0 0 0 0 0 0 0 0 0 0 0 0 0 0 -0 -0 0 0 0 0 0 0 0 0
0 0 0 0 0 0 0 0 0 0 0 0 0 0 0 0 0 0 0 0 0 0 0 0 0 0 0 0 0 0 0 0 0 0 0 0 0 0 0 0 0 0 0 0 0 0 0 0 0 0 0 0 0 0
0 0 0 0 -0 -0 0 0 0 0 0 0 0 0 0 0 0 0 0 0 0 0 0 -0 0 0 0 0 0 0 0 0 0 0 0 0 0 0 0 0 0 0 0 0 0 0 0 0 0 0 0 0 0 0
0 0 0 0 -0 -0 0 0 0 0 0 0 0 0 0 0 0 0 -0 0 0 -0 -0 0 0 0 0 0 0 0 0 0 0 0 0 0 0 0 0 0 0 0 0 0 0 0 0 0 0 0 0 0 0 0
0 0 0 0 0 0 0 0 0 0 0 0 0 0 0 0 0 0 -0 -0 -0 -0 -0 0 0 0 0 0 0 0 0 0 0 0 0 0 0 0 0 0 0 0 0 0 0 0 0 0 0 0 0 0 0 0
0 0 0 0 0 0 0 0 0 0 0 0 0 0 0 0 0 -0 0 0 0 0 0 0 0 0 -0 0 0 0 0 0 0 0 0 0 0 0 0 0 0 0 0 0 0 0 0 0 0 0 0 0 0 0
0 0 0 0 0 0 0 0 0 0 0 0 0 0 0 0 0 0 0 0 -0 0 0 0 0 0 0 0 0 0 0 0 0 0 0 0 0 0 0 0 0 0 0 0 0 0 0 0 0 0 0 0 0 0
-0 -0 -0 -0 -0 0 0 0 0 0 0 0 0 0 0 0 0 0 0 0 -0 0 0 0 0 0 0 0 0 0 -0 0 0 0 0 0 0 0 0 0 0 0 0 0 0 0 0 0 0 0 0 0 0 0
-0 -0 -0 -0 -0 -0 0 0 0 0 0 0 0 0 0 0 0 0 0 0 0 0 0 0 0 0 0 0 0 0 0 0 0 0 0 0 0 0 0 0 0 0 0 0 0 0 0 0 0 0 0 0 0 0
0 0 0 0 -0 0 0 0 0 0 0 0 0 0 0 0 0 0 0 0 0 0 -0 0 0 0 0 0 0 0 0 0 0 0 0 0 0 0 0 0 0 0 0 0 0 0 0 0 0 0 0 0 0 0
0 0 0 -0 0 0 0 0 0 0 -0 0 0 0 0 0 0 0 0 0 0 0 0 0 -0 0 0 0 -0 -0 0 0 0 0 0 0 0 0 0 0 0 0 0 0 0 0 0 0 0 0 0 0 0 0
0 0 -0 -0 0 0 0 0 0 0 0 0 0 0 0 0 0 0 0 0 0 0 0 0 0 0 0 0 0 0 0 0 0 0 0 0 0 0 0 0 0 0 0 0 0 0 0 0 0 0 0 0 0 0
-0 -0 0 0 0 0 0 0 0 0 0 0 0 0 0 0 0 0 0 0 0 0 0 0 0 0 0 0 0 0 0 0 0 0 0 0 0 0 0 0 0 0 0 0 0 0 0 0 0 0 0 0 0 0
0 0 0 0 0 0 0 0 0 0 0 0 0 0 0 0 0 0 0 0 0 0 0 0 0 0 0 0 0 0 0 0 0 0 0 0 0 0 0 0 0 0 0 0 0 0 0 0 0 0 0 0 0 0
0 0 0 0 0 0 0 0 0 0 0 0 0 0 -0 0 0 0 0 0 0 0 0 0 0 0 0 0 0 0 0 0 0 0 0 0 0 0 0 0 0 0 0 0 0 0 0 0 0 0 0 0 0 0
0 0 0 0 0 0 0 -0 0 0 0 0 -0 0 -0 -0 0 -0 0 -0 0 -0 0 0 0 0 0 0 0 0 0 0 0 0 0 0 0 0 0 0 0 0 0 0 0 0 0 0 0 0 0 0 0 0
0 0 0 0 0 0 0 0 0 0 0 0 0 0 0 0 0 0 0 0 0 -0 -0 -0 -0 -0 0 0 0 0 0 0 0 0 0 0 0 0 0 0 0 0 0 0 0 0 0 0 0 0 0 0 0 0
0 0 0 0 0 0 0 0 0 0 0 0 0 0 0 0 0 0 0 -0 0 -0 -0 -0 -0 -0 -0 -0 -0 -0 -0 0 -0 -0 0 0 0 0 0 0 0 0 0 0 0 0 0 0 0 0 0 0 0 0
0 0 0 0 0 0 0 0 0 0 0 0 0 0 0 0 0 -0 0 0 0 0 0 -0 -0 0 -0 0 0 0 0 0 0 -0 0 0 0 0 0 0 0 0 0 0 0 0 0 0 0 0 0 0 0 0
0 0 0 0 0 0 0 0 0 0 0 0 0 0 0 0 0 0 0 0 0 0 0 0 0 0 0 0 -0 0 -0 0 0 0 0 0 0 0 0 0 0 0 0 0 0 0 0 0 0 0 0 0 0 0
0 0 0 0 0 0 0 0 0 0 0 0 0 0 0 0 0 0 0 0 0 0 0 0 0 0 -0 -0 -0 -0 -0 -0 -0 0 -0 -0 0 0 0 0 0 0 0 0 0 0 0 0 0 0 0 0 0 0
0 0 0 0 0 0 0 0 0 0 0 0 0 0 0 0 0 0 0 0 0 0 -0 -0 0 -0 -0 -0 -0 -0 0 0 -0 -0 0 0 -0 -0 -0 -0 -0 -0 -0 -0 -0 -0 -0 -0 -0 -0 -0 0 0 0
0 0 0 0 0 0 0 0 0 0 0 0 0 0 0 0 0 0 0 0 -0 0 0 -0 -0 -0 -0 -0 -0 -0 -0 -0 -0 -0 -0 -0 -0 -0 -0 -0 -0 -0 -0 -0 -0 -0 -0 -0 -0 -0 -0 -0 -0 -0
0 0 0 0 0 0 0 -0 0 0 0 0 0 0 0 0 0 0 0 -0 -0 -0 -0 0 0 -0 -0 -0 -0 -0 -0 -0 -0 -0 0 -0 -0 -0 -0 -0 -0 -0 -0 -0 -0 -0 -0 -0 -0 -0 -0 -0 -0 -0
0 0 0 0 0 0 0 0 0 0 0 0 0 0 0 0 -0 0 -0 -0 -0 0 0 -0 -0 0 0 0 0 -0 -0 -0 -0 -0 -0 -0 -0 -0 -0 -0 -0 -0 -0 -0 -0 -0 -0 -0 0 0 0 0 0 0
0 0 0 0 0 0 0 0 0 0 0 0 0 0 0 0 -0 -0 0 0 0 -0 -0 -0 -0 -0 -0 -0 -0 -0 0 0 -0 -0 -0 -0 -0 -0 -0 -0 -0 -0 -0 -0 -0 -0 -0 -0 -0 -0 -0 0 0 0
Wind_Speed_500mb
43 43 44 43 40 38 30 22 23 19 20 23 23 25 28 20 16 15 12 12 18 14 39 48 43 33 33 24 5 19 19 5 9 5 8 8 7 11 8 8 10 14 12 7 5 2 12 13 10 12 8 13 12 17
41 41 39 37 36 28 22 17 21 19 22 22 23 23 18 17 15 13 9 14 18 24 34 47 51 40 47 41 31 11 9 9 10 5 3 5 6 4 9 7 4 4 12 11 15 12 9 18 6 3 10 11 7 16
38 38 34 28 24 21 17 18 20 23 24 19 14 12 12 15 15 17 18 21 27 28 56 45 47 27 42 45 57 25 15 19 5 19 4 4 6 8 8 9 5 4 8 7 5 3 12 20 17 8 2 6 5 16
37 35 30 22 15 18 17 17 16 13 11 10 10 12 12 15 14 17 17 20 22 13 11 23 22 35 26 36 44 60 61 13 10 30 8 6 5 10 8 5 8 8 16 11 6 10 5 17 15 9 7 13 19 19
35 29 20 14 15 18 18 16 13 11 12 13 14 15 15 17 18 22 27 29 27 19 10 31 75 21 12 46 53 46 53 63 37 10 6 7 8 8 5 4 4 16 14 9 11 23 13 9 18 15 14 16 21 25
29 22 13 17 18 16 18 19 18 17 17 16 17 17 18 20 18 18 9 6 5 15 11 9 24 21 15 14 39 58 56 44 19 12 14 11 5 7 8 6 10 28 29 26 9 25 30 6 20 20 19 17 18 21
21 20 18 18 21 17 23 24 21 19 17 17 18 18 20 20 20 14 8 5 5 8 7 13 13 13 15 5 19 31 43 24 21 13 12 6 3 11 6 7 16 32 29 31 26 25 25 18 27 29 23 21 19 20
17 19 23 18 20 24 20 20 20 20 17 15 16 18 19 20 23 15 9 15 29 10 8 6 9 15 21 4 9 24 28 23 22 11 6 7 7 1 4 13 18 23 27 27 27 33 23 24 29 34 30 26 28 29
17 16 22 21 20 22 20 21 19 19 14 11 12 14 19 8 4 5 11 11 14 19 6 7 6 9 27 15 4 18 18 8 13 7 7 6 2 3 11 21 33 38 40 37 36 42 25 27 35 33 35 33 29 37
13 14 15 20 27 26 23 20 16 12 9 5 6 6 4 3 11 12 6 3 6 11 11 8 7 6 15 11 7 4 9 8 7 7 11 3 8 7 17 37 43 46 43 42 38 34 29 30 35 40 43 37 27 27
14 15 21 21 21 25 23 17 6 5 2 1 3 5 8 9 6 4 6 8 9 6 11 13 13 7 11 4 6 8 4 4 8 6 10 8 9 13 35 23 46 43 38 39 32 36 34 35 35 41 42 43 42 38
13 15 17 20 21 19 12 11 6 8 9 8 7 15 7 4 4 3 5 7 7 6 9 7 7 11 13 8 6 12 5 2 6 7 7 6 9 34 51 60 49 45 49 42 42 34 32 27 29 36 38 39 40 29
15 20 22 21 20 10 9 11 12 16 12 7 4 4 5 5 2 6 4 2 4 3 2 9 7 6 7 5 6 7 12 6 11 2 6 9 6 6 19 41 54 67 67 54 55 43 33 27 26 28 30 35 47 44
15 12 10 9 8 10 11 12 14 13 10 4 5 5 6 6 7 6 7 6 12 8 18 24 12 7 7 4 4 7 6 4 10 3 5 4 14 17 6 11 25 27 35 50 55 41 36 33 33 30 30 29 39 56
8 7 8 9 11 13 12 18 22 22 5 5 7 6 11 18 13 17 19 12 16 27 19 10 9 8 1 5 4 3 7 3 4 7 4 3 19 26 25 13 5 15 22 28 37 37 33 28 29 37 34 32 31 50
5 6 5 12 14 16 15 14 18 16 5 6 10 7 13 4 10 9 12 12 3 9 11 4 3 7 3 5 5 7 7 9 6 4 0 10 15 20 25 27 26 23 19 14 17 18 17 16 17 22 30 32 32 41
8 3 3 4 10 14 18 19 13 7 8 7 12 19 29 28 27 23 6 12 11 10 4 2 2 4 2 4 4 4 5 2 6 8 14 15 13 18 23 21 18 17 10 4 5 11 17 23 24 22 24 27 32 37
7 4 2 7 12 20 22 9 6 8 12 17 11 12 14 22 22 15 17 28 21 6 6 5 4 5 4 7 6 7 12 4 1 11 11 8 12 12 12 13 13 14 13 12 11 10 13 11 24 23 26 30 35 40
12 7 4 14 19 7 6 7 9 8 16 14 20 27 23 23 25 23 25 27 22 15 8 3 3 5 6 10 8 7 7 7 5 9 9 6 6 6 7 9 10 9 7 10 13 13 14 23 30 25 25 30 36 37
16 11 9 20 14 2 5 6 9 10 10 6 15 18 14 14 21 23 21 21 19 10 7 6 8 7 6 2 4 3 5 1 4 2 6 6 9 10 9 12 10 8 9 11 13 14 15 15 23 29 30 36 38 36
8 11 11 12 10 7 8 7 10 11 12 11 14 14 13 20 21 22 22 18 16 11 11 26 31 30 19 12 9 8 2 8 12 9 7 9 5 4 10 11 13 11 14 17 20 21 20 22 22 23 30 32 33 36
7 12 8 10 6 7 11 12 12 13 10 13 16 10 11 10 9 6 4 7 9 14 22 34 44 47 44 34 23 20 15 16 21 19 16 17 18 15 18 23 22 18 16 18 26 31 32 29 27 26 23 29 33 35
14 13 4 8 5 7 11 9 8 7 4 6 5 5 5 6 6 6 5 6 8 8 16 24 25 28 36 39 39 35 33 34 32 28 20 20 24 22 23 19 17 16 20 19 27 31 34 32 28 25 23 22 26 29
8 5 4 6 11 9 8 7 9 8 7 4 4 7 6 6 6 4 5 5 13 22 18 10 11 9 16 22 28 33 25 25 25 24 25 29 30 24 20 21 22 26 26 29 32 36 37 32 28 23 19 19 22 23
2 6 5 8 8 6 7 6 5 3 3 4 5 6 5 4 3 3 5 5 17 20 20 10 4 4 6 10 14 20 25 29 30 32 31 29 26 25 21 23 25 21 25 32 35 36 33 29 28 26 20 17 20 22
4 7 9 6 5 7 6 5 4 3 5 5 8 6 4 3 3 2 4 18 15 18 23 20 14 6 2 4 3 3 6 11 18 24 20 17 16 15 14 11 12 16 22 23 24 25 22 20 18 16 15 19 20 23
5 7 7 8 9 12 9 10 11 4 5 5 5 6 4 5 5 5 14 11 9 15 18 16 15 16 17 18 17 17 14 10 7 5 2 1 2 1 5 8 8 11 13 17 21 19 10 7 7 5 5 12 18 18
8 7 6 4 8 7 5 6 5 4 4 9 10 6 3 2 4 10 7 7 12 16 16 22 27 21 20 18 18 20 19 18 15 14 11 11 12 13 14 12 13 18 22 26 35 29 23 22 23 28 29 27 23 26
8 8 7 8 8 9 8 8 6 5 11 10 5 4 6 6 12 7 16 21 18 14 12 18 21 24 25 26 24 23 17 10 4 1 9 19 22 22 25 27 31 31 30 27 28 28 30 31 35 36 40 44 42 40
8 15 7 6 6 6 6 5 9 20 20 13 10 7 5 14 9 3 15 18 14 13 12 13 13 15 16 23 27 32 29 25 21 17 19 28 30 27 28 28 29 30 29 29 32 33 34 33 33 32 33 36 38 39
6 11 7 7 6 8 8 14 14 9 7 6 5 5 8 3 4 10 17 20 17 15 12 10 12 12 12 11 19 29 36 39 37 33 28 29 27 31 29 25 27 26 24 23 24 24 23 22 21 22 21 19 16 13
8 9 3 4 7 7 7 3 3 1 1 4 3 4 6 5 6 8 8 11 18 24 22 17 11 12 13 11 15 16 22 29 34 35 34 34 30 27 26 23 20 20 19 19 19 19 21 19 14 12 10 7 5 6
9 12 21 9 6 2 2 1 4 4 2 8 10 10 11 7 4 6 9 9 9 11 19 22 24 21 18 17 15 11 11 11 14 15 13 13 12 11 13 12 10 9 7 6 6 1 6 12 10 14 19 15 10 8
Wind_Direction_500mb
295 299 301 303 303 303 297 294 299 283 276 271 270 284 284 269 270 273 270 229 227 253 269 267 261 269 279 270 216 309 336 303 305 97 129 189 128 208 119 172 182 170 143 175 107 116 295 172 118 161 222 300 269 203
293 296 302 304 307 312 298 285 289 290 275 268 269 274 269 256 256 270 289 231 257 265 267 279 276 262 256 254 261 270 285 319 278 17 74 115 128 137 152 200 80 219 176 177 172 211 223 206 190 199 314 284 241 188
292 294 299 297 312 317 298 287 285 283 276 272 270 270 263 262 268 273 273 266 276 285 295 276 276 284 247 251 248 237 253 223 223 22 227 239 138 130 149 232 168 207 181 118 95 251 229 220 218 258 8 17 114 169
291 291 290 291 297 296 306 291 281 276 277 270 266 269 267 267 270 278 282 286 285 283 273 285 282 262 268 264 270 235 224 204 292 335 283 221 171 206 168 185 164 192 142 154 273 276 274 245 208 167 129 94 122 138
289 281 270 283 276 280 295 290 279 274 276 276 273 270 264 265 278 293 296 287 264 239 285 289 303 317 276 248 241 227 228 235 264 317 292 238 173 135 65 86 225 188 166 156 216 207 171 227 187 181 177 140 155 137
279 269 251 260 270 269 284 292 283 272 274 274 272 270 273 279 292 311 291 326 263 219 290 306 307 307 326 262 217 213 220 218 203 210 250 268 216 111 136 189 254 192 191 189 184 198 189 55 176 190 195 174 157 161
274 254 234 254 265 273 285 289 288 276 279 271 272 277 278 279 278 267 261 289 288 248 288 298 286 292 322 257 162 188 205 197 191 212 237 260 178 189 107 168 212 200 202 201 213 181 184 215 188 192 192 195 186 169
278 251 231 258 261 271 277 279 288 280 276 280 276 276 277 282 291 291 281 257 237 257 251 277 279 304 1 276 149 173 175 194 200 231 244 198 152 197 171 234 175 183 182 194 194 187 187 202 195 192 190 193 200 199
288 265 243 252 268 265 273 287 285 280 270 274 278 286 292 273 258 305 304 274 219 214 263 256 321 314 345 315 257 186 166 161 192 202 221 100 321 192 219 179 178 174 173 175 178 191 205 203 197 195 197 205 217 209
281 255 252 255 267 277 285 292 285 290 271 264 298 282 270 299 297 301 267 231 180 202 230 250 258 255 306 283 280 232 191 155 157 236 105 106 265 248 206 204 193 184 185 184 183 198 212 207 206 200 208 210 212 211
264 263 246 263 281 280 266 275 261 272 262 135 250 255 281 306 297 254 263 197 177 235 218 241 236 245 288 270 296 348 291 170 135 208 150 165 223 227 224 232 210 207 198 209 226 235 230 221 224 217 217 221 219 220
262 263 258 261 269 281 244 229 221 235 197 197 257 284 273 248 242 272 247 176 207 238 203 215 283 231 293 307 318 337 293 8 97 324 112 161 246 221 222 228 229 223 225 219 222 223 220 229 236 236 237 230 220 218
265 273 262 258 268 255 229 206 247 233 196 239 274 278 251 210 258 240 259 259 335 278 328 345 334 273 224 278 307 359 4 8 291 157 212 222 314 298 239 234 233 225 234 227 218 221 227 235 239 243 251 248 231 226
277 271 264 247 227 230 220 216 256 200 178 228 231 273 229 217 240 205 229 243 261 258 288 296 266 234 212 140 117 339 324 309 3 327 241 327 7 11 9 235 230 225 220 223 226 232 238 248 248 247 257 255 240 229
258 257 242 234 227 229 224 217 227 188 188 244 236 241 224 238 263 260 285 272 283 311 310 284 272 245 196 135 119 152 132 240 275 275 312 348 54 56 56 56 172 217 228 229 230 234 243 249 252 245 256 263 249 227
249 280 256 233 228 217 209 206 180 175 244 237 235 261 250 283 279 279 301 300 272 329 320 290 320 40 264 312 186 224 188 199 221 212 319 73 72 68 73 75 79 89 105 127 178 201 216 232 254 263 252 252 251 235
138 79 1 145 175 174 158 150 160 212 238 240 244 246 259 275 270 290 309 344 318 313 234 167 297 153 84 317 286 266 235 206 297 131 111 91 77 72 67 64 60 55 50 24 289 265 254 242 240 248 256 258 255 249
117 122 90 148 150 153 159 161 210 239 246 247 247 266 249 254 271 258 246 264 283 239 213 230 178 177 225 207 203 239 239 338 100 113 137 136 92 68 52 43 37 29 19 357 336 288 261 239 246 248 269 271 264 253
139 128 163 157 149 155 205 224 223 259 248 262 264 272 268 272 278 276 267 266 270 256 273 233 236 221 227 233 226 203 223 206 187 192 194 151 77 83 64 64 56 37 7 335 331 323 279 264 254 257 254 267 272 259
159 165 184 175 169 299 255 234 225 260 264 270 261 265 261 265 275 271 262 256 261 265 230 216 217 226 236 169 154 71 112 356 5 60 172 128 91 77 57 34 18 4 0 355 353 344 324 301 273 267 258 254 258 255
141 176 177 190 227 278 271 265 244 244 278 261 283 285 274 278 273 272 277 264 230 213 222 235 247 256 264 224 208 182 134 356 340 333 342 10 346 321 4 8 3 342 338 344 350 347 322 316 308 307 272 260 252 244
144 156 163 182 230 245 267 244 254 286 269 269 288 268 274 293 285 264 247 204 235 242 237 251 252 249 250 241 226 229 265 293 301 289 279 288 304 295 312 319 310 300 304 325 332 327 328 322 302 301 299 265 249 241
172 177 197 213 252 243 263 250 258 252 248 273 285 265 236 257 252 294 260 252 259 285 304 296 290 257 250 247 247 253 267 270 272 268 268 281 293 293 295 304 313 301 307 313 320 320 320 319 311 299 298 288 255 245
147 197 249 224 214 263 286 252 237 262 269 263 311 296 266 254 302 236 203 243 282 318 327 310 311 247 229 235 241 229 242 236 246 250 262 271 279 279 279 290 295 290 293 301 307 312 311 305 301 296 291 286 265 237
187 228 234 266 227 249 244 231 243 296 299 311 257 247 258 246 259 322 319 280 342 3 5 2 286 290 254 250 237 231 237 245 248 251 255 270 275 272 271 289 301 296 304 309 310 307 303 296 288 284 261 249 253 251
240 216 192 252 208 195 247 284 318 274 262 247 230 250 256 239 240 263 307 342 348 12 15 22 23 17 296 255 247 261 259 257 249 247 250 265 275 269 274 293 314 319 319 321 328 327 313 295 288 283 252 221 207 195
262 277 252 255 276 291 288 278 281 292 271 280 330 320 334 357 0 332 331 5 2 13 20 31 43 57 70 80 68 51 53 52 54 83 151 334 273 76 335 342 23 41 46 35 15 21 4 339 24 58 164 179 191 197
253 265 223 288 306 258 265 293 272 273 300 339 330 15 330 289 286 326 2 56 41 66 83 52 45 65 74 68 58 51 53 58 72 84 93 102 86 86 77 73 74 84 77 71 59 57 63 75 83 88 88 89 104 115
241 236 242 269 257 255 243 224 246 289 340 344 333 284 302 335 349 52 89 73 52 42 46 72 75 85 75 60 47 44 44 43 22 113 146 131 112 99 98 98 96 84 77 77 80 76 73 72 78 87 87 83 83 99
251 202 221 246 225 240 251 242 307 324 325 315 303 319 331 89 125 147 0 11 50 82 97 104 96 94 83 75 61 51 61 70 84 89 110 129 128 110 107 104 93 86 84 82 83 83 84 84 87 93 103 109 114 118
263 201 243 244 270 269 300 322 318 304 306 308 322 347 10 5 86 57 54 60 62 74 89 90 82 56 63 104 79 72 73 77 81 86 100 118 118 119 113 98 96 91 85 80 79 79 77 77 82 89 94 96 96 92
211 214 69 305 278 311 312 303 305 347 49 348 340 35 79 28 29 46 45 61 59 73 62 68 72 65 60 117 117 90 85 82 81 87 93 102 109 110 110 105 93 87 85 83 74 68 57 46 63 68 57 64 86 73
196 215 219 258 269 240 284 289 183 197 317 19 35 33 46 22 52 58 44 63 82 91 79 88 85 81 79 88 113 107 103 116 87 73 82 89 92 100 105 103 104 103 93 70 35 316 5 44 75 62 60 70 68 56
Wind_Speed_850mb
43 43 44 43 40 38 30 22 23 19 20 23 23 25 28 20 16 15 12 12 18 14 39 48 43 33 33 24 5 19 19 5 9 5 8 8 7 11 8 8 10 14 12 7 5 2 12 13 10 12 8 13 12 17
41 41 39 37 36 28 22 17 21 19 22 22 23 23 18 17 15 13 9 14 18 24 34 47 51 40 47 41 31 11 9 9 10 5 3 5 6 4 9 7 4 4 12 11 15 12 9 18 6 3 10 11 7 16
38 38 34 28 24 21 17 18 20 23 24 19 14 12 12 15 15 17 18 21 27 28 56 45 47 27 42 45 57 25 15 19 5 19 4 4 6 8 8 9 5 4 8 7 5 3 12 20 17 8 2 6 5 16
37 35 30 22 15 18 17 17 16 13 11 10 10 12 12 15 14 17 17 20 22 13 11 23 22 35 26 36 44 60 61 13 10 30 8 6 5 10 8 5 8 8 16 11 6 10 5 17 15 9 7 13 19 19
35 29 20 14 15 18 18 16 13 11 12 13 14 15 15 17 18 22 27 29 27 19 10 31 75 21 12 46 53 46 53 63 37 10 6 7 8 8 5 4 4 16 14 9 11 23 13 9 18 15 14 16 21 25
29 22 13 17 18 16 18 19 18 17 17 16 17 17 18 20 18 18 9 6 5 15 11 9 24 21 15 14 39 58 56 44 19 12 14 11 5 7 8 6 10 28 29 26 9 25 30 6 20 20 19 17 18 21
21 20 18 18 21 17 23 24 21 19 17 17 18 18 20 20 20 14 8 5 5 8 7 13 13 13 15 5 19 31 43 24 21 13 12 6 3 11 6 7 16 32 29 31 26 25 25 18 27 29 23 21 19 20
17 19 23 18 20 24 20 20 20 20 17 15 16 18 19 20 23 15 9 15 29 10 8 6 9 15 21 4 9 24 28 23 22 11 6 7 7 1 4 13 18 23 27 27 27 33 23 24 29 34 30 26 28 29
17 16 22 21 20 22 20 21 19 19 14 11 12 14 19 8 4 5 11 11 14 19 6 7 6 9 27 15 4 18 18 8 13 7 7 6 2 3 11 21 33 38 40 37 36 42 25 27 35 33 35 33 29 37
13 14 15 20 27 26 23 20 16 12 9 5 6 6 4 3 11 12 6 3 6 11 11 8 7 6 15 11 7 4 9 8 7 7 11 3 8 7 17 37 43 46 43 42 38 34 29 30 35 40 43 37 27 27
14 15 21 21 21 25 23 17 6 5 2 1 3 5 8 9 6 4 6 8 9 6 11 13 13 7 11 4 6 8 4 4 8 6 10 8 9 13 35 23 46 43 38 39 32 36 34 35 35 41 42 43 42 38
13 15 17 20 21 19 12 11 6 8 9 8 7 15 7 4 4 3 5 7 7 6 9 7 7 11 13 8 6 12 5 2 6 7 7 6 9 34 51 60 49 45 49 42 42 34 32 27 29 36 38 39 40 29
15 20 22 21 20 10 9 11 12 16 12 7 4 4 5 5 2 6 4 2 4 3 2 9 7 6 7 5 6 7 12 6 11 2 6 9 6 6 19 41 54 67 67 54 55 43 33 27 26 28 30 35 47 44
15 12 10 9 8 10 11 12 14 13 10 4 5 5 6 6 7 6 7 6 12 8 18 24 12 7 7 4 4 7 6 4 10 3 5 4 14 17 6 11 25 27 35 50 55 41 36 33 33 30 30 29 39 56
8 7 8 9 11 13 12 18 22 22 5 5 7 6 11 18 13 17 19 12 16 27 19 10 9 8 1 5 4 3 7 3 4 7 4 3 19 26 25 13 5 15 22 28 37 37 33 28 29 37 34 32 31 50
5 6 5 12 14 16 15 14 18 16 5 6 10 7 13 4 10 9 12 12 3 9 11 4 3 7 3 5 5 7 7 9 6 4 0 10 15 20 25 27 26 23 19 14 17 18 17 16 17 22 30 32 32 41
8 3 3 4 10 14 18 19 13 7 8 7 12 19 29 28 27 23 6 12 11 10 4 2 2 4 2 4 4 4 5 2 6 8 14 15 13 18 23 21 18 17 10 4 5 11 17 23 24 22 24 27 32 37
7 4 2 7 12 20 22 9 6 8 12 17 11 12 14 22 22 15 17 28 21 6 6 5 4 5 4 7 6 7 12 4 1 11 11 8 12 12 12 13 13 14 13 12 11 10 13 11 24 23 26 30 35 40
12 7 4 14 19 7 6 7 9 8 16 14 20 27 23 23 25 23 25 27 22 15 8 3 3 5 6 10 8 7 7 7 5 9 9 6 6 6 7 9 10 9 7 10 13 13 14 23 30 25 25 30 36 37
16 11 9 20 14 2 5 6 9 10 10 6 15 18 14 14 21 23 21 21 19 10 7 6 8 7 6 2 4 3 5 1 4 2 6 6 9 10 9 12 10 8 9 11 13 14 15 15 23 29 30 36 38 36
8 11 11 12 10 7 8 7 10 11 12 11 14 14 13 20 21 22 22 18 16 11 11 26 31 30 19 12 9 8 2 8 12 9 7 9 5 4 10 11 13 11 14 17 20 21 20 22 22 23 30 32 33 36
7 12 8 10 6 7 11 12 12 13 10 13 16 10 11 10 9 6 4 7 9 14 22 34 44 47 44 34 23 20 15 16 21 19 16 17 18 15 18 23 22 18 16 18 26 31 32 29 27 26 23 29 33 35
14 13 4 8 5 7 11 9 8 7 4 6 5 5 5 6 6 6 5 6 8 8 16 24 25 28 36 39 39 35 33 34 32 28 20 20 24 22 23 19 17 16 20 19 27 31 34 32 28 25 23 22 26 29
8 5 4 6 11 9 8 7 9 8 7 4 4 7 6 6 6 4 5 5 13 22 18 10 11 9 16 22 28 33 25 25 25 24 25 29 30 24 20 21 22 26 26 29 32 36 37 32 28 23 19 19 22 23
2 6 5 8 8 6 7 6 5 3 3 4 5 6 5 4 3 3 5 5 17 20 20 10 4 4 6 10 14 20 25 29 30 32 31 29 26 25 21 23 25 21 25 32 35 36 33 29 28 26 20 17 20 22
4 7 9 6 5 7 6 5 4 3 5 5 8 6 4 3 3 2 4 18 15 18 23 20 14 6 2 4 3 3 6 11 18 24 20 17 16 15 14 11 12 16 22 23 24 25 22 20 18 16 15 19 20 23
5 7 7 8 9 12 9 10 11 4 5 5 5 6 4 5 5 5 14 11 9 15 18 16 15 16 17 18 17 17 14 10 7 5 2 1 2 1 5 8 8 11 13 17 21 19 10 7 7 5 5 12 18 18
8 7 6 4 8 7 5 6 5 4 4 9 10 6 3 2 4 10 7 7 12 16 16 22 27 21 20 18 18 20 19 18 15 14 11 11 12 13 14 12 13 18 22 26 35 29 23 22 23 28 29 27 23 26
8 8 7 8 8 9 8 8 6 5 11 10 5 4 6 6 12 7 16 21 18 14 12 18 21 24 25 26 24 23 17 10 4 1 9 19 22 22 25 27 31 31 30 27 28 28 30 31 35 36 40 44 42 40
8 15 7 6 6 6 6 5 9 20 20 13 10 7 5 14 9 3 15 18 14 13 12 13 13 15 16 23 27 32 29 25 21 17 19 28 30 27 28 28 29 30 29 29 32 33 34 33 33 32 33 36 38 39
6 11 7 7 6 8 8 14 14 9 7 6 5 5 8 3 4 10 17 20 17 15 12 10 12 12 12 11 19 29 36 39 37 33 28 29 27 31 29 25 27 26 24 23 24 24 23 22 21 22 21 19 16 13
8 9 3 4 7 7 7 3 3 1 1 4 3 4 6 5 6 8 8 11 18 24 22 17 11 12 13 11 15 16 22 29 34 35 34 34 30 27 26 23 20 20 19 19 19 19 21 19 14 12 10 7 5 6
9 12 21 9 6 2 2 1 4 4 2 8 10 10 11 7 4 6 9 9 9 11 19 22 24 21 18 17 15 11 11 11 14 15 13 13 12 11 13 12 10 9 7 6 6 1 6 12 10 14 19 15 10 8
Wind_Direction_850mb
295 299 301 303 303 303 297 294 299 283 276 271 270 284 284 269 270 273 270 229 227 253 269 267 261 269 279 270 216 309 336 303 305 97 129 189 128 208 119 172 182 170 143 175 107 116 295 172 118 161 222 300 269 203
293 296 302 304 307 312 298 285 289 290 275 268 269 274 269 256 256 270 289 231 257 265 267 279 276 262 256 254 261 270 285 319 278 17 74 115 128 137 152 200 80 219 176 177 172 211 223 206 190 199 314 284 241 188
292 294 299 297 312 317 298 287 285 283 276 272 270 270 263 262 268 273 273 266 276 285 295 276 276 284 247 251 248 237 253 223 223 22 227 239 138 130 149 232 168 207 181 118 95 251 229 220 218 258 8 17 114 169
291 291 290 291 297 296 306 291 281 276 277 270 266 269 267 267 270 278 282 286 285 283 273 285 282 262 268 264 270 235 224 204 292 335 283 221 171 206 168 185 164 192 142 154 273 276 274 245 208 167 129 94 122 138
289 281 270 283 276 280 295 290 279 274 276 276 273 270 264 265 278 293 296 287 264 239 285 289 303 317 276 248 241 227 228 235 264 317 292 238 173 135 65 86 225 188 166 156 216 207 171 227 187 181 177 140 155 137
279 269 251 260 270 269 284 292 283 272 274 274 272 270 273 279 292 311 291 326 263 219 290 306 307 307 326 262 217 213 220 218 203 210 250 268 216 111 136 189 254 192 191 189 184 198 189 55 176 190 195 174 157 161
274 254 234 254 265 273 285 289 288 276 279 271 272 277 278 279 278 267 261 289 288 248 288 298 286 292 322 257 162 188 205 197 191 212 237 260 178 189 107 168 212 200 202 201 213 181 184 215 188 192 192 195 186 169
278 251 231 258 261 271 277 279 288 280 276 280 276 276 277 282 291 291 281 257 237 257 251 277 279 304 1 276 149 173 175 194 200 231 244 198 152 197 171 234 175 183 182 194 194 187 187 202 195 192 190 193 200 199
288 265 243 252 268 265 273 287 285 280 270 274 278 286 292 273 258 305 304 274 219 214 263 256 321 314 345 315 257 186 166 161 192 202 221 100 321 192 219 179 178 174 173 175 178 191 205 203 197 195 197 205 217 209
281 255 252 255 267 277 285 292 285 290 271 264 298 282 270 299 297 301 267 231 180 202 230 250 258 255 306 283 280 232 191 155 157 236 105 106 265 248 206 204 193 184 185 184 183 198 212 207 206 200 208 210 212 211
264 263 246 263 281 280 266 275 261 272 262 135 250 255 281 306 297 254 263 197 177 235 218 241 236 245 288 270 296 348 291 170 135 208 150 165 223 227 224 232 210 207 198 209 226 235 230 221 224 217 217 221 219 220
262 263 258 261 269 281 244 229 221 235 197 197 257 284 273 248 242 272 247 176 207 238 203 215 283 231 293 307 318 337 293 8 97 324 112 161 246 221 222 228 229 223 225 219 222 223 220 229 236 236 237 230 220 218
265 273 262 258 268 255 229 206 247 233 196 239 274 278 251 210 258 240 259 259 335 278 328 345 334 273 224 278 307 359 4 8 291 157 212 222 314 298 239 234 233 225 234 227 218 221 227 235 239 243 251 248 231 226
277 271 264 247 227 230 220 216 256 200 178 228 231 273 229 217 240 205 229 243 261 258 288 296 266 234 212 140 117 339 324 309 3 327 241 327 7 11 9 235 230 225 220 223 226 232 238 248 248 247 257 255 240 229
258 257 242 234 227 229 224 217 227 188 188 244 236 241 224 238 263 260 285 272 283 311 310 284 272 245 196 135 119 152 132 240 275 275 312 348 54 56 56 56 172 217 228 229 230 234 243 249 252 245 256 263 249 227
249 280 256 233 228 217 209 206 180 175 244 237 235 261 250 283 279 279 301 300 272 329 320 290 320 40 264 312 186 224 188 199 221 212 319 73 72 68 73 75 79 89 105 127 178 201 216 232 254 263 252 252 251 235
138 79 1 145 175 174 158 150 160 212 238 240 244 246 259 275 270 290 309 344 318 313 234 167 297 153 84 317 286 266 235 206 297 131 111 91 77 72 67 64 60 55 50 24 289 265 254 242 240 248 256 258 255 249
117 122 90 148 150 153 159 161 210 239 246 247 247 266 249 254 271 258 246 264 283 239 213 230 178 177 225 207 203 239 239 338 100 113 137 136 92 68 52 43 37 29 19 357 336 288 261 239 246 248 269 271 264 253
139 128 163 157 149 155 205 224 223 259 248 262 264 272 268 272 278 276 267 266 270 256 273 233 236 221 227 233 226 203 223 206 187 192 194 151 77 83 64 64 56 37 7 335 331 323 279 264 254 257 254 267 272 259
159 165 184 175 169 299 255 234 225 260 264 270 261 265 261 265 275 271 262 256 261 265 230 216 217 226 236 169 154 71 112 356 5 60 172 128 91 77 57 34 18 4 0 355 353 344 324 301 273 267 258 254 258 255
141 176 177 190 227 278 271 265 244 244 278 261 283 285 274 278 273 272 277 264 230 213 222 235 247 256 264 224 208 182 134 356 340 333 342 10 346 321 4 8 3 342 338 344 350 347 322 316 308 307 272 260 252 244
144 156 163 182 230 245 267 244 254 286 269 269 288 268 274 293 285 264 247 204 235 242 237 251 252 249 250 241 226 229 265 293 301 289 279 288 304 295 312 319 310 300 304 325 332 327 328 322 302 301 299 265 249 241
172 177 197 213 252 243 263 250 258 252 248 273 285 265 236 257 252 294 260 252 259 285 304 296 290 257 250 247 247 253 267 270 272 268 268 281 293 293 295 304 313 301 307 313 320 320 320 319 311 299 298 288 255 245
147 197 249 224 214 263 286 252 237 262 269 263 311 296 266 254 302 236 203 243 282 318 327 310 311 247 229 235 241 229 242 236 246 250 262 271 279 279 279 290 295 290 293 301 307 312 311 305 301 296 291 286 265 237
187 228 234 266 227 249 244 231 243 296 299 311 257 247 258 246 259 322 319 280 342 3 5 2 286 290 254 250 237 231 237 245 248 251 255 270 275 272 271 289 301 296 304 309 310 307 303 296 288 284 261 249 253 251
240 216 192 252 208 195 247 284 318 274 262 247 230 250 256 239 240 263 307 342 348 12 15 22 23 17 296 255 247 261 259 257 249 247 250 265 275 269 274 293 314 319 319 321 328 327 313 295 288 283 252 221 207 195
262 277 252 255 276 291 288 278 281 292 271 280 330 320 334 357 0 332 331 5 2 13 20 31 43 57 70 80 68 51 53 52 54 83 151 334 273 76 335 342 23 41 46 35 15 21 4 339 24 58 164 179 191 197
253 265 223 288 306 258 265 293 272 273 300 339 330 15 330 289 286 326 2 56 41 66 83 52 45 65 74 68 58 51 53 58 72 84 93 102 86 86 77 73 74 84 77 71 59 57 63 75 83 88 88 89 104 115
241 236 242 269 257 255 243 224 246 289 340 344 333 284 302 335 349 52 89 73 52 42 46 72 75 85 75 60 47 44 44 43 22 113 146 131 112 99 98 98 96 84 77 77 80 76 73 72 78 87 87 83 83 99
251 202 221 246 225 240 251 242 307 324 325 315 303 319 331 89 125 147 0 11 50 82 97 104 96 94 83 75 61 51 61 70 84 89 110 129 128 110 107 104 93 86 84 82 83 83 84 84 87 93 103 109 114 118
263 201 243 244 270 269 300 322 318 304 306 308 322 347 10 5 86 57 54 60 62 74 89 90 82 56 63 104 79 72 73 77 81 86 100 118 118 119 113 98 96 91 85 80 79 79 77 77 82 89 94 96 96 92
211 214 69 305 278 311 312 303 305 347 49 348 340 35 79 28 29 46 45 61 59 73 62 68 72 65 60 117 117 90 85 82 81 87 93 102 109 110 110 105 93 87 85 83 74 68 57 46 63 68 57 64 86 73
196 215 219 258 269 240 284 289 183 197 317 19 35 33 46 22 52 58 44 63 82 91 79 88 85 81 79 88 113 107 103 116 87 73 82 89 92 100 105 103 104 103 93 70 35 316 5 44 75 62 60 70 68 56